Weather History for Springfield, MO

Change the Weather History Date:

Monday, May 27, 2013

  Actual Average Record
Temperature  
Mean Temperature 75 °F 68 °F  
Max Temperature 84 °F 78 °F 91 °F (2012)
Min Temperature 66 °F 58 °F 37 °F (1961)
Degree Days  
Heating Degree Days 0 1  
Month to date heating degree days 142 90  
Since 1 July heating degree days 4494 4564  
Cooling Degree Days 10 4  
Month to date cooling degree days 75 69  
Year to date cooling degree days 92 94  
Growing Degree Days 25 (Base 50)    
Moisture  
Dew Point 65 °F    
Average Humidity 73    
Maximum Humidity 87    
Minimum Humidity 58    
Precipitation  
Precipitation 0.00 in 0.16 in 1.47 in (1910)
Month to date precipitation 3.33 4.51  
Year to date precipitation 19.08 17.44  
Snow  
Snow 0.00 in - - ()
Month to date snowfall 1.4  
Since 1 July snowfall 12.7  
Snow Depth 0.00 in    
Sea Level Pressure  
Sea Level Pressure 29.88 in    
Wind  
Wind Speed 16 mph (South)    
Max Wind Speed 25 mph    
Max Gust Speed 33 mph    
Visibility 10 miles    
Events Thunderstorm    
T = Trace of Precipitation, MM = Missing Value Source: NWS Daily Summary

Daily Weather History Graph

Daily Weather History Graph

Search for Another Location

Airport:

Trip Planner

Search our weather history database for the weather conditions in past years. The results will help you decide how hot, cold, wet, or windy it might be!

Date:

Astronomy

May. 27, 2013 Rise Set
Actual Time 5:56 AM CDT 8:25 PM CDT
Civil Twilight 5:26 AM CDT 8:55 PM CDT
Nautical Twilight 4:49 AM CDT 9:32 PM CDT
Astronomical Twilight 4:08 AM CDT 10:13 PM CDT
Moon 11:06 PM CDT (5/27) 8:33 AM CDT (5/27)
Length of Visible Light 15h 28m
Length of Day
14h 28m
Waning Gibbous, 91% of the Moon is Illuminated
May 27
Waning Gibbous
May 31
Last Quarter
Jun 8
New
Jun 16
First Quarter
Jun 23
Full

Hourly Weather History & Observations

Time (CDT) Temp. Heat Index Dew Point Humidity Pressure Visibility Wind Dir Wind Speed Gust Speed Precip Events Conditions
12:52 AM 70.0 °F - 63.0 °F 78% 29.97 in 10.0 mi SSE 10.4 mph - N/A   Clear
1:52 AM 68.0 °F - 62.1 °F 81% 29.97 in 10.0 mi SSE 8.1 mph - N/A   Clear
2:52 AM 68.0 °F - 61.0 °F 78% 29.96 in 10.0 mi SSE 12.7 mph - N/A   Clear
3:52 AM 66.9 °F - 61.0 °F 81% 29.96 in 10.0 mi SSE 10.4 mph - N/A   Partly Cloudy
4:52 AM 68.0 °F - 62.1 °F 81% 29.94 in 10.0 mi SSE 13.8 mph - N/A   Mostly Cloudy
5:52 AM 66.0 °F - 62.1 °F 87% 29.93 in 10.0 mi SSE 12.7 mph - N/A   Scattered Clouds
6:52 AM 66.9 °F - 63.0 °F 87% 29.93 in 10.0 mi SSE 16.1 mph - N/A   Scattered Clouds
7:52 AM 70.0 °F - 64.0 °F 81% 29.93 in 10.0 mi SSE 17.3 mph - N/A   Clear
8:52 AM 73.0 °F - 66.0 °F 79% 29.92 in 10.0 mi South 19.6 mph 26.5 mph N/A   Partly Cloudy
9:15 AM 75.0 °F - 66.0 °F 73% 29.94 in 10.0 mi South 21.9 mph 28.8 mph N/A   Mostly Cloudy
9:52 AM 75.9 °F - 66.9 °F 74% 29.88 in 10.0 mi South 23.0 mph 33.4 mph N/A   Overcast
10:52 AM 77.0 °F - 66.9 °F 71% 29.88 in 10.0 mi South 17.3 mph 32.2 mph N/A   Mostly Cloudy
11:39 AM 79.0 °F - 68.0 °F 69% 29.92 in 10.0 mi South 21.9 mph 32.2 mph N/A   Scattered Clouds
11:52 AM 80.1 °F 82.7 °F 68.0 °F 67% 29.88 in 10.0 mi South 20.7 mph 27.6 mph N/A   Scattered Clouds
12:18 PM 80.1 °F 82.7 °F 68.0 °F 67% 29.92 in 10.0 mi South 17.3 mph 26.5 mph N/A   Mostly Cloudy
12:30 PM 80.1 °F 82.3 °F 66.9 °F 64% 29.92 in 10.0 mi South 20.7 mph 31.1 mph N/A   Scattered Clouds
12:52 PM 80.1 °F 82.7 °F 68.0 °F 67% 29.89 in 10.0 mi South 16.1 mph 27.6 mph N/A   Scattered Clouds
1:52 PM 82.9 °F 85.8 °F 68.0 °F 60% 29.87 in 10.0 mi South 18.4 mph - N/A   Scattered Clouds
2:52 PM 82.0 °F 84.5 °F 66.9 °F 60% 29.86 in 10.0 mi South 19.6 mph 26.5 mph N/A   Mostly Cloudy
3:52 PM 82.9 °F 85.4 °F 66.9 °F 58% 29.85 in 10.0 mi South 13.8 mph - N/A   Scattered Clouds
4:52 PM 82.0 °F 84.5 °F 66.9 °F 60% 29.83 in 10.0 mi South 12.7 mph 21.9 mph N/A   Mostly Cloudy
5:52 PM 80.1 °F 81.9 °F 64.9 °F 60% 29.82 in 10.0 mi South 17.3 mph - N/A   Clear
6:52 PM 79.0 °F - 64.9 °F 62% 29.78 in 10.0 mi South 18.4 mph 26.5 mph N/A   Clear
7:52 PM 77.0 °F - 64.9 °F 66% 29.78 in 10.0 mi South 18.4 mph 24.2 mph N/A   Clear
8:52 PM 75.0 °F - 63.0 °F 66% 29.76 in 10.0 mi South 17.3 mph 26.5 mph N/A   Clear
9:52 PM 73.9 °F - 63.0 °F 68% 29.78 in 10.0 mi South 18.4 mph 25.3 mph N/A   Clear
10:52 PM 73.0 °F - 63.0 °F 71% 29.80 in 10.0 mi South 20.7 mph 29.9 mph N/A   Clear
11:04 PM 73.0 °F - 63.0 °F 71% 29.83 in 10.0 mi South 20.7 mph 27.6 mph N/A Thunderstorm Clear
11:41 PM 73.0 °F - 63.0 °F 71% 29.83 in 10.0 mi South 15.0 mph - N/A   Clear
11:52 PM 73.0 °F - 63.0 °F 71% 29.79 in 10.0 mi South 16.1 mph - N/A   Clear